Home > Weather > Ganganagar > Past weeks

Flag for India Weather for the Past 2 Weeks in Ganganagar, Rajasthan, India

Now
77 °F

Clear.


Feels Like: 79 °F
Forecast: 84 / 110 °F
Wind: 5 mph from Southeast

Location: Lahore Airport

Current Time: May 7, 2016 at 6:21:03 AM

Latest Report: May 7, 2016 at 5:25 AM


Visibility: 2 mi

Pressure: 29.71 "Hg

Humidity: 54%

Dew Point: 59 °F

Location of GanganagarLocation

Historic Weather in Ganganagar — Graph

°F

Ganganagar Temperature Yesterday

Maximum temperature yesterday: 99 °F (at 1:55 PM)
Minimum temperature yesterday: 73 °F (at 4:25 AM)
Average temperature yesterday: 86 °F

High & Low Weather Summary for the Past Weeks

 TemperatureHumidityPressure
High111 °F (May 2, 3:25 PM)83% (Apr 22, 5:30 AM)30.01 "Hg (Apr 22, 5:30 AM)
Low68 °F (Apr 27, 2:25 AM)9% (Apr 30, 2:25 PM)29.56 "Hg (Apr 22, 4:25 PM)
Average88 °F31%29.70 "Hg
* Reported Apr 22 4:30 AM — May 7 5:25 AM, Ganganagar, Weather by CustomWeather, © 2016

Note: Actual official high and low records may vary slightly from our data, if they occured in-between our weather recording intervals... More about our weather records

Advertising

Ganganagar Weather History for the Previous 24 Hours

Scroll right to see more
 ConditionsComfort  
Time TempWeatherWind HumidityBarometerVisibility
5:25 AM
Sat, May 7
77 °FClear.5 mph54%29.71 "Hg2 mi
4:55 AM77 °FClear.5 mph51%29.68 "Hg2 mi
4:25 AM77 °FClear.No wind51%29.68 "Hg2 mi
4:00 AM79 °FHaze.No wind48%29.68 "Hg2 mi
3:29 AM79 °FHaze.No wind48%29.68 "Hg2 mi
2:29 AM81 °FHaze.No wind48%29.68 "Hg2 mi
1:59 AM82 °FHaze.No wind45%29.68 "Hg2 mi
12:59 AM84 °FHaze.No wind43%29.71 "Hg2 mi
12:29 AM84 °FHaze.No wind43%29.71 "Hg2 mi
11:29 PM
Fri, May 6
86 °FHaze.No wind40%29.71 "Hg2 mi
9:59 PM90 °FHaze.No wind33%29.71 "Hg3 mi
9:29 PM90 °FHaze.No wind33%29.71 "Hg3 mi
8:59 PM91 °FHaze.No wind34%29.71 "Hg3 mi
8:30 PM91 °FClear.No wind34%29.71 "Hg4 mi
7:30 PM93 °FHaze.No wind32%29.71 "Hg3 mi
7:00 PM93 °FHaze.No wind28%29.71 "Hg3 mi
6:30 PM95 °FHaze.No wind26%29.71 "Hg3 mi
6:00 PM97 °FHaze.No wind27%29.71 "Hg3 mi
5:30 PM97 °FHaze.3 mph25%29.71 "Hg3 mi
5:00 PM97 °FHaze.No wind25%29.71 "Hg3 mi
4:30 PM99 °FHaze.3 mph24%29.71 "Hg3 mi
4:00 PM97 °FHaze.3 mph27%29.71 "Hg3 mi
3:25 PM97 °FHaze.3 mph27%29.74 "Hg3 mi
2:55 PM97 °FHaze.3 mph28%29.74 "Hg3 mi
2:25 PM97 °FClear.No wind28%29.77 "Hg3 mi
1:55 PM99 °FClear.No wind27%29.77 "Hg3 mi
1:25 PM97 °FClear.No wind28%29.77 "Hg3 mi
12:55 PM91 °FClear.3 mph38%29.80 "Hg4 mi
12:25 PM91 °FClear.3 mph38%29.80 "Hg4 mi
11:55 AM91 °FClear.3 mph36%29.80 "Hg4 mi
11:30 AM90 °FClear.No wind38%29.80 "Hg5 mi
10:55 AM88 °FClear.No wind40%29.80 "Hg5 mi
10:25 AM88 °FClear.3 mph40%29.83 "Hg5 mi
10:00 AM84 °FClear.No wind43%29.80 "Hg5 mi
9:30 AM81 °FClear.No wind48%29.80 "Hg5 mi
9:00 AM79 °FClear.No wind45%29.80 "Hg4 mi
8:25 AM77 °FClear.5 mph47%29.80 "Hg4 mi
7:55 AM75 °FClear.6 mph54%29.80 "Hg3 mi
7:25 AM73 °FClear.5 mph57%29.77 "Hg2 mi
6:55 AM73 °FClear.8 mph57%29.77 "Hg2 mi
6:25 AM73 °FClear.7 mph57%29.77 "Hg2 mi
Weather by CustomWeather, © 2016

See weather overviewHow to use our weather pages